Home   Weather   Unst   Past weeks
Flag for United Kingdom

Past Weather in Unst, Scotland, United Kingdom — Yesterday and Last 2 Weeks

Now
49 °F

Low clouds.


Feels Like: 47 °F
Forecast: 48 / 47 °F
Wind: 7 mph from North

Location: Lerwick

Current Time: May 21, 2019 at 8:12:56 am

Latest Report: May 21, 2019 at 7:00 am


Visibility: 19 mi

Pressure: 29.97 "Hg

Humidity: 92%

Dew Point: 47 °F

Location of UnstLocation

Past Weather in Unst — Graph

°F

Unst Temperature Yesterday

Maximum temperature yesterday: 52 °F (at 6:00 pm)
Minimum temperature yesterday: 47 °F (at 4:00 am)
Average temperature yesterday: 50 °F

High & Low Weather Summary for the Past Weeks

 TemperatureHumidityPressure
High58 °F (May 14, 3:00 pm)100% (May 16, 4:00 am)30.63 "Hg (May 16, 4:00 am)
Low32 °F (May 8, 5:00 am)48% (May 6, 1:00 pm)29.60 "Hg (May 9, 1:00 pm)
Average45 °F82%30.10 "Hg
* Reported May 6 7:00 am — May 21 7:00 am, Unst. Weather by CustomWeather, © 2019

Note: Actual official high and low records may vary slightly from our data, if they occured in-between our weather recording intervals... More about our weather records

Advertising

Unst Weather History for the Previous 24 Hours

Scroll right to see more
 ConditionsComfort  
Time TempWeatherWind HumidityBarometerVisibility
7:00 am
Tue, May 21
49 °FLow clouds.7 mph92%29.97 "Hg19 mi
6:00 am49 °FOvercast.5 mph86%29.98 "Hg19 mi
5:00 am49 °FCool.7 mph82%29.98 "Hg31 mi
4:00 am49 °FOvercast.8 mph85%29.98 "Hg22 mi
3:00 am49 °FOvercast.6 mph88%29.98 "Hg18 mi
2:00 am49 °FOvercast.6 mph90%29.99 "Hg12 mi
1:00 am49 °FOvercast.6 mph90%29.99 "Hg17 mi
12:00 am49 °FOvercast.6 mph92%29.98 "Hg11 mi
11:00 pm
Mon, May 20
49 °FOvercast.7 mph91%29.98 "Hg12 mi
10:00 pm49 °FOvercast.9 mph89%29.98 "Hg14 mi
9:00 pm50 °FOvercast.9 mph88%29.98 "Hg14 mi
8:00 pm50 °FOvercast.9 mph87%29.97 "Hg19 mi
7:00 pm51 °FCool.9 mph87%29.96 "Hg17 mi
6:00 pm52 °FOvercast.8 mph81%29.96 "Hg19 mi
5:00 pm52 °FOvercast.5 mph79%29.96 "Hg25 mi
4:00 pm51 °FOvercast.8 mph83%29.95 "Hg19 mi
3:00 pm51 °FOvercast.7 mph84%29.95 "Hg19 mi
2:00 pm51 °FOvercast.3 mph80%29.95 "Hg22 mi
1:00 pm51 °FOvercast.6 mph84%29.94 "Hg19 mi
12:00 pm51 °FLow clouds.8 mph86%29.94 "Hg19 mi
11:00 am51 °FLow clouds.5 mph93%29.94 "Hg12 mi
10:00 am51 °FLow clouds.5 mph97%29.93 "Hg9 mi
9:00 am49 °FLow clouds.6 mph99%29.93 "Hg6 mi
8:00 am49 °FFog.5 mph100%29.92 "Hg4 mi
Weather by CustomWeather, © 2019

See weather overview